Weather History for KBUF - January, 2014

Change the Weather History Date:

Monday, January 27, 2014

  Actual Average Record
Temperature  
Mean Temperature 17 °F 24 °F  
Max Temperature 30 °F 31 °F 66 °F (1916)
Min Temperature 3 °F 18 °F -5 °F (1927)
Degree Days  
Heating Degree Days 48 41  
Month to date heating degree days 1191 1085  
Since 1 July heating degree days 3649 3500  
Cooling Degree Days 0 0  
Month to date cooling degree days 0 0  
Year to date cooling degree days 0 0  
Moisture  
Dew Point 7 °F    
Average Humidity 70    
Maximum Humidity 85    
Minimum Humidity 55    
Precipitation  
Precipitation 0.12 in 0.10 in 1.21 in (1889)
Month to date precipitation 3.15 2.83  
Year to date precipitation 3.15 2.83  
Snow  
Snow 3.80 in 0.70 in 5.10 in (1978)
Month to date snowfall 42.3 22.4  
Since 1 July snowfall 80.8 58.6  
Snow Depth 9.00 in    
Sea Level Pressure  
Sea Level Pressure 29.73 in    
Wind  
Wind Speed 18 mph (West)    
Max Wind Speed 33 mph    
Max Gust Speed 45 mph    
Visibility 5 miles    
Events Snow    
T = Trace of Precipitation, MM = Missing Value Source: NWS Daily Summary

Daily Weather History Graph

Daily Weather History Graph

Search for Another Location

Airport or City:

Trip Planner

Search our weather history database for the weather conditions in past years. The results will help you decide how hot, cold, wet, or windy it might be!

Date:

Astronomy

Jan. 27, 2014 Rise Set
Actual Time 7:34 AM EST 5:21 PM EST
Civil Twilight 7:04 AM EST 5:51 PM EST
Nautical Twilight 6:30 AM EST 6:25 PM EST
Astronomical Twilight 5:56 AM EST 6:59 PM EST
Moon 4:15 AM EST 2:04 PM EST
Length of Visible Light 10h 47m
Length of Day
9h 46m
Waning Crescent, 15% of the Moon is Illuminated
Jan 27
Waning Crescent
Jan 30
New
Feb 6
First Quarter
Feb 14
Full
Feb 22
Last Quarter

Hourly Weather History & Observations

Time (EST) Temp. Windchill Dew Point Humidity Pressure Visibility Wind Dir Wind Speed Gust Speed Precip Events Conditions
12:54 AM 30.0 °F 19.1 °F 21.0 °F 69% 29.41 in 10.0 mi SSW 15.0 mph - N/A   Overcast
1:54 AM 30.0 °F 20.5 °F 21.0 °F 69% 29.35 in 10.0 mi South 11.5 mph - 0.00 in Snow Light Snow
2:54 AM 30.0 °F 25.2 °F 21.9 °F 72% 29.30 in 9.0 mi WSW 4.6 mph - 0.00 in Snow Light Snow
3:01 AM 30.2 °F 24.3 °F 21.2 °F 69% 29.26 in 5.0 mi WNW 5.8 mph - 0.00 in Snow Light Snow
3:28 AM 28.4 °F 17.5 °F 24.8 °F 86% 29.28 in 2.5 mi WNW 13.8 mph - 0.02 in Snow Light Snow
3:37 AM 28.4 °F 17.5 °F 24.8 °F 86% 29.29 in 1.0 mi WNW 13.8 mph - 0.02 in Snow Light Snow
3:42 AM 28.4 °F 19.1 °F 24.8 °F 86% 29.29 in 0.8 mi West 10.4 mph - 0.03 in Snow Light Snow
3:54 AM 28.0 °F 16.1 °F 25.0 °F 88% 29.34 in 0.8 mi West 16.1 mph 25.3 mph 0.05 in Snow Light Snow
4:06 AM 28.4 °F 16.6 °F 26.6 °F 93% 29.33 in 0.8 mi WSW 16.1 mph 24.2 mph 0.01 in Snow Light Snow
4:54 AM 23.0 °F 8.0 °F 21.0 °F 92% 29.42 in 0.5 mi WNW 20.7 mph 31.1 mph 0.05 in Snow Snow
5:01 AM 23.0 °F 10.1 °F 21.2 °F 93% 29.40 in 0.5 mi WNW 15.0 mph 27.6 mph 0.00 in Snow Snow
5:54 AM 19.0 °F 1.6 °F 15.1 °F 85% 29.52 in 0.8 mi West 24.2 mph 36.8 mph 0.01 in Snow Light Snow
6:06 AM 17.6 °F 0.5 °F 12.2 °F 79% 29.51 in 1.0 mi West 21.9 mph 33.4 mph 0.00 in Snow Light Snow
6:27 AM 17.6 °F 1.3 °F 10.4 °F 73% 29.53 in 2.0 mi West 19.6 mph 32.2 mph 0.00 in Snow Light Snow
6:44 AM 17.6 °F -0.3 °F 10.4 °F 73% 29.56 in 3.0 mi West 24.2 mph 33.4 mph 0.00 in Snow Light Snow
6:54 AM 17.1 °F -0.6 °F 9.0 °F 71% 29.61 in 3.0 mi West 23.0 mph 32.2 mph 0.00 in Snow Blowing Snow
7:18 AM 15.8 °F -4.7 °F 6.8 °F 68% 29.61 in 2.0 mi West 31.1 mph 44.9 mph N/A Snow Blowing Snow
7:49 AM 12.2 °F -7.5 °F 3.2 °F 67% 29.66 in 3.0 mi West 24.2 mph 39.1 mph N/A Snow Blowing Snow
7:54 AM 12.9 °F -6.9 °F 3.0 °F 65% 29.70 in 3.0 mi West 25.3 mph 36.8 mph N/A Snow Blowing Snow
8:15 AM 12.2 °F -8.2 °F 1.4 °F 62% 29.69 in 10.0 mi West 26.5 mph 38.0 mph N/A   Mostly Cloudy
8:54 AM 12.0 °F -7.3 °F 1.9 °F 64% 29.77 in 6.0 mi WSW 23.0 mph 34.5 mph N/A Snow Blowing Snow
9:36 AM 12.2 °F -7.5 °F 3.2 °F 67% 29.77 in 6.0 mi WSW 24.2 mph 39.1 mph N/A Snow Blowing Snow
9:54 AM 12.9 °F -3.9 °F 3.9 °F 67% 29.82 in 5.0 mi West 17.3 mph 35.7 mph N/A Snow Blowing Snow
10:54 AM 12.9 °F -5.3 °F 3.0 °F 65% 29.87 in 5.0 mi WSW 20.7 mph 27.6 mph N/A Snow Blowing Snow
11:54 AM 14.0 °F -3.0 °F 1.9 °F 59% 29.91 in 10.0 mi West 18.4 mph 29.9 mph N/A   Partly Cloudy
12:54 PM 12.9 °F -6.1 °F -0.0 °F 56% 29.92 in 8.0 mi West 23.0 mph 29.9 mph N/A   Scattered Clouds
1:54 PM 14.0 °F -4.3 °F 1.9 °F 59% 29.94 in 8.0 mi West 21.9 mph 28.8 mph N/A   Scattered Clouds
2:51 PM 12.2 °F -5.8 °F 3.2 °F 67% 29.92 in 1.5 mi WSW 19.6 mph 27.6 mph 0.00 in Snow Light Snow
2:54 PM 12.0 °F -4.5 °F 3.9 °F 70% 29.96 in 1.2 mi SW 16.1 mph 27.6 mph 0.00 in Snow Light Snow
3:01 PM 10.4 °F -8.2 °F 5.0 °F 79% 29.92 in 0.8 mi WSW 19.6 mph 26.5 mph 0.00 in Snow Light Snow
3:44 PM 10.4 °F -6.0 °F 3.2 °F 73% 29.93 in 2.0 mi WSW 15.0 mph 25.3 mph 0.00 in Snow Light Snow
3:54 PM 10.0 °F -7.6 °F 3.9 °F 76% 29.98 in 1.8 mi WSW 17.3 mph 25.3 mph 0.00 in Snow Light Snow
4:31 PM 10.4 °F -7.7 °F 3.2 °F 73% 29.96 in 7.0 mi WSW 18.4 mph - 0.00 in   Mostly Cloudy
4:54 PM 10.0 °F -8.1 °F -2.0 °F 58% 30.01 in 7.0 mi West 18.4 mph 24.2 mph 0.00 in   Mostly Cloudy
5:54 PM 8.1 °F -11.2 °F -4.0 °F 58% 30.05 in 8.0 mi West 19.6 mph 31.1 mph N/A   Partly Cloudy
6:54 PM 7.0 °F -9.1 °F -4.0 °F 61% 30.06 in 10.0 mi West 12.7 mph - N/A   Partly Cloudy
7:54 PM 6.1 °F -11.6 °F -7.1 °F 55% 30.09 in 10.0 mi West 15.0 mph - N/A   Scattered Clouds
8:54 PM 5.0 °F -12.3 °F -8.0 °F 55% 30.12 in 10.0 mi West 13.8 mph 21.9 mph N/A   Scattered Clouds
9:54 PM 3.9 °F -14.3 °F -8.0 °F 58% 30.13 in 10.0 mi West 15.0 mph 23.0 mph N/A   Mostly Cloudy
10:54 PM 3.9 °F -15.6 °F -7.1 °F 60% 30.16 in 9.0 mi West 17.3 mph 26.5 mph 0.00 in Snow Light Snow
11:54 PM 3.0 °F -17.8 °F -8.0 °F 60% 30.18 in 8.0 mi West 19.6 mph 32.2 mph 0.00 in   Overcast